User: anonymous
Location: Unspecified
(0.0000°N, 0.0000°E)
Time: 05:13:08
(UTC+02:00)
Language:

ARIANE 5 R/B - Orbit

View from above orbital plane
View from above orbital plane
View from above satellite
View from above satellite

Ground track
Ground track

The orbit data is extracted from the following two-line orbital elements,

1 29646U 06054D   14293.32303668  .00012647  00000-0  31633-2 0  7639
2 29646 002.8382 048.7199 7149788 149.5124 337.7225 02.44947868 67565
Epoch (UTC): 20 October 2014 07:45:10
Eccentricity: 0.7149788
inclination: 2.8382°
perigee height: 247 km
apogee height: 33488 km
right ascension of ascending node: 48.7199°
argument of perigee: 149.5124°
revolutions per day: 2.44947868
mean anomaly at epoch: 337.7225°
orbit number at epoch: 6756

The dashed part of the orbit path shows where the satellite is in the earth's shadow,  

DLR